Simultaneous Nadir Overpasses (SNOs) Predictions

Prediction of SNOs between NOAA-19 and NPP Satellite Orbit:

Table of predicted SNOs for the next 14.0 days since TLE Epoch: 12/30/2013
Index Date (NOAA-19) Time (NOAA-19) Lat,Lon (NOAA-19) SZA (NOAA-19 ) Date (NPP) Time (NPP) Lat,Lon (NPP) SZA (NPP ) Distance(km) Time Diff (sec)
1 01/01/2014 04:24:59 -80.98,-120.14 72.41 01/01/2014 04:26:06 -80.98,-120.09 72.45 0.92 67
2 01/01/2014 05:16:04 80.98, 47.27 107.57 01/01/2014 05:16:51 80.98, 47.39 107.52 2.16 47
3 01/01/2014 06:07:02 -80.97,-145.25 72.47 01/01/2014 06:07:35 -80.97,-145.10 72.51 2.75 33
4 01/01/2014 06:58:06 80.96, 22.53 107.45 01/01/2014 06:58:20 80.96, 22.38 107.47 2.66 14
5 01/01/2014 07:49:04 -80.95,-170.00 72.59 01/01/2014 07:49:04 -80.95,-170.11 72.57 1.99 0
6 01/01/2014</
